Theta_e
304 305 306 307 307 308 309 310 309 308 309 309 309 311 314 315 316 316 315 316 314 316 318 318 319 321 322 323 326 324 319 320 319 319 332 324 320 318 320 322 321 319 320 318 318 319 323 332 333 337 335 333 333 332
305 308 310 311 312 312 312 312 311 311 311 311 311 311 311 314 315 315 314 315 314 315 317 317 318 319 319 318 319 318 321 321 319 320 334 325 329 323 325 324 323 325 321 322 325 331 330 329 330 328 328 330 329 329
310 311 312 313 313 313 312 312 311 311 311 311 311 312 313 313 314 314 313 312 311 313 315 316 317 317 317 317 317 319 319 321 320 324 326 328 326 324 323 322 325 324 322 324 326 329 328 326 325 324 326 327 327 326
311 311 311 311 311 312 311 311 311 311 311 311 311 312 312 313 313 313 312 311 312 314 317 317 314 316 317 317 318 317 318 318 319 322 324 325 323 322 321 322 323 323 321 321 320 320 323 326 325 325 325 324 327 326
310 309 311 311 311 311 311 311 311 311 311 311 311 311 312 312 312 312 312 311 312 315 316 318 315 316 317 317 317 317 318 318 320 321 322 322 320 319 318 317 322 322 325 323 323 323 324 325 323 323 323 322 324 324
309 309 310 310 311 310 311 311 312 312 312 311 311 311 311 311 312 312 313 312 312 315 317 319 317 317 316 317 317 317 318 320 321 319 318 322 321 320 320 320 320 320 321 320 321 320 320 322 322 320 321 321 323 322
309 310 309 308 308 309 309 310 310 311 311 312 312 312 312 311 311 312 313 312 313 314 317 320 320 317 317 317 317 317 317 318 319 319 321 322 320 318 318 323 321 320 320 320 320 319 318 317 317 317 318 321 322 324
308 309 309 309 309 308 308 309 309 310 310 310 310 310 311 311 312 313 312 312 313 313 316 322 321 319 317 318 319 319 320 320 321 320 319 320 319 318 319 317 315 321 321 320 318 316 316 317 316 317 318 319 322 323
307 307 309 309 309 310 310 311 310 310 310 310 311 311 311 311 314 313 312 311 312 313 318 323 321 322 317 318 318 317 318 319 320 319 319 318 320 321 322 317 318 322 321 320 318 316 316 316 317 317 317 318 320 321
307 307 306 307 309 309 309 310 310 309 310 311 312 314 318 314 313 313 312 314 314 317 319 324 322 321 318 319 321 320 321 323 323 319 318 317 320 320 320 318 320 323 321 319 319 319 318 317 316 315 315 314 317 320
308 307 306 306 307 308 308 308 309 311 312 312 316 320 313 313 314 320 321 320 320 321 318 322 320 323 318 322 323 322 323 323 325 325 324 323 324 323 321 321 323 320 319 318 317 316 315 315 315 316 316 318 319 320
306 306 306 306 307 307 307 309 310 311 313 313 312 313 314 317 321 322 323 322 322 322 323 322 323 321 323 323 323 322 322 324 325 324 325 325 323 325 323 322 321 319 318 317 316 315 315 315 316 316 317 317 319 320
306 306 306 307 307 308 309 310 311 311 313 318 320 321 322 321 317 322 321 323 325 324 323 324 323 322 321 322 324 324 323 324 324 324 326 324 324 324 321 320 319 318 316 315 315 314 314 315 315 316 317 317 319 319
306 306 307 307 309 310 310 311 311 312 316 321 321 313 319 322 322 322 323 324 323 322 323 323 323 323 322 322 323 323 322 325 325 326 326 329 326 323 320 319 317 316 315 314 314 313 314 315 315 316 317 318 318 318
305 306 307 308 310 311 310 310 312 312 317 321 321 319 319 319 318 318 322 322 319 320 321 323 323 323 323 323 322 322 323 324 325 323 325 326 324 320 318 317 315 315 314 313 312 313 313 313 315 315 315 315 316 316
305 308 309 308 309 310 310 312 315 317 320 321 319 321 320 322 322 319 319 320 317 318 320 321 322 322 320 319 324 323 324 322 325 321 320 324 321 319 317 315 314 314 313 312 313 312 312 313 313 314 313 313 313 313
307 312 314 313 312 309 310 312 319 320 318 318 319 318 321 321 322 321 318 317 317 317 319 317 317 317 316 320 322 317 319 317 316 317 320 321 318 317 315 314 314 313 312 312 311 311 311 312 313 312 310 311 310 309
311 313 312 310 309 314 317 316 320 318 315 317 320 320 317 317 321 321 320 319 318 316 314 313 311 312 314 316 316 313 313 311 313 315 316 318 316 314 314 314 314 313 312 311 311 311 312 311 309 308 307 307 307 308
309 309 308 308 311 313 319 318 318 316 316 316 317 317 316 317 318 317 316 314 312 312 312 311 312 313 312 311 311 311 312 312 313 312 311 311 311 312 312 312 313 313 312 311 310 310 310 311 311 310 309 308 310 310
310 310 309 310 311 317 319 319 316 319 317 316 317 316 317 317 316 315 314 315 314 315 313 313 312 310 310 310 310 310 309 310 310 310 310 309 309 309 310 310 310 310 310 311 310 311 310 310 311 310 310 310 310 309
311 314 313 311 317 316 320 319 318 318 318 319 318 318 316 313 317 316 316 316 318 316 316 314 313 313 311 312 309 308 308 308 309 309 308 309 309 309 309 309 309 309 310 311 310 310 311 310 310 310 310 310 310 309
315 314 314 317 317 319 321 319 319 319 319 319 318 319 317 318 317 315 316 314 314 318 317 317 315 315 313 312 311 309 309 308 308 309 309 309 310 310 310 310 310 311 311 311 310 311 310 310 310 310 310 310 310 308
313 314 316 317 319 316 313 318 321 318 320 320 319 317 316 316 317 316 315 315 316 315 314 315 314 313 313 312 311 311 311 311 310 310 309 310 310 310 310 309 309 310 310 310 309 310 310 310 310 310 310 310 311 310
316 316 319 320 319 318 321 320 323 320 319 319 319 316 316 317 317 317 315 316 313 313 314 316 314 314 313 313 313 312 311 311 310 310 310 310 310 310 308 308 309 309 308 308 308 308 307 308 308 307 309 308 309 309
316 316 315 309 319 322 320 319 321 319 319 320 317 316 316 318 317 316 315 315 313 312 313 314 314 314 314 314 313 313 311 310 311 312 311 311 311 310 310 309 308 308 308 308 308 307 306 306 306 307 306 306 306 307
317 319 316 323 322 320 318 319 320 319 319 320 318 318 319 319 318 317 315 313 312 312 313 313 313 312 312 312 313 312 312 311 310 310 311 309 308 309 308 309 309 308 308 307 306 305 305 304 305 307 307 306 306 307
317 323 320 321 322 317 320 319 318 320 319 320 320 318 319 319 319 316 314 313 312 311 310 311 311 311 311 310 309 309 309 309 308 308 307 307 307 308 308 307 307 307 306 308 307 306 306 306 306 306 306 306 304 306
321 322 321 322 322 323 318 318 320 321 317 319 318 318 319 319 319 317 314 313 311 311 311 311 310 310 310 309 309 309 309 308 306 306 306 306 306 307 306 305 304 305 306 306 306 306 306 306 306 305 306 305 306 306
323 323 323 324 318 318 319 315 315 314 316 319 319 319 318 318 316 315 313 312 310 310 311 310 310 309 309 308 308 309 309 307 307 308 308 306 305 304 304 304 304 305 305 306 306 306 305 304 305 306 304 305 305 305
323 322 323 322 320 317 316 316 316 315 316 316 317 316 316 317 314 312 312 311 311 311 310 310 311 310 309 308 308 308 307 307 306 307 308 307 305 304 304 304 305 304 304 304 303 302 302 304 304 303 303 304 303 302
322 322 320 320 320 318 316 315 315 314 313 315 317 317 316 315 313 312 312 311 311 311 311 311 310 310 309 309 309 308 308 307 307 307 307 306 306 305 305 305 305 305 305 304 304 305 305 305 305 305 304 305 305 304
322 320 320 321 320 317 315 317 317 317 315 316 315 314 314 315 315 315 312 311 311 311 311 311 311 311 309 308 307 308 308 308 307 307 307 307 307 307 306 306 306 306 306 305 305 306 306 306 306 306 307 307 305 306
321 319 320 321 319 316 317 317 317 318 318 318 317 316 316 316 316 315 312 311 311 311 311 311 311 311 309 308 308 307 307 307 307 307 306 306 306 305 305 306 306 307 307 306 306 306 306 307 307 306 305 306 306 307
Wind_Speed
31 32 30 30 30 30 29 27 26 25 23 21 20 21 21 19 19 19 9 21 10 3 5 7 7 5 2 3 2 6 3 3 0 3 2 3 2 5 6 7 9 6 5 4 4 6 5 7 7 5 6 7 8 8
30 32 34 32 31 31 31 30 29 27 25 24 22 21 21 21 20 20 9 21 24 2 3 8 18 14 7 9 4 4 5 5 4 3 1 2 1 4 2 3 4 3 5 5 3 4 6 9 10 7 8 9 7 7
34 34 35 34 33 31 28 28 27 26 26 25 24 23 22 22 22 21 13 14 10 2 3 4 8 19 22 15 14 3 4 3 1 4 4 1 1 1 1 2 5 5 4 4 6 3 9 9 7 7 9 9 8 7
31 31 32 32 28 24 22 22 23 23 23 22 22 22 21 22 21 19 17 20 13 1 2 4 18 9 24 17 24 27 20 25 11 2 3 2 3 2 2 4 4 3 6 6 3 6 11 6 6 8 9 8 9 7
26 27 28 25 18 14 15 16 17 19 20 19 17 17 17 16 16 15 20 18 23 4 2 3 10 15 22 26 26 28 25 13 4 1 2 2 1 3 2 2 3 2 6 4 3 5 8 7 7 9 8 7 7 5
22 21 23 23 20 18 17 18 20 13 5 7 8 10 10 9 12 11 2 9 24 7 0 2 2 4 15 21 24 21 4 2 3 3 2 2 2 3 2 1 1 6 7 6 5 7 10 9 8 6 5 1 6 6
18 16 19 20 18 17 17 17 20 21 18 13 10 10 11 20 13 2 1 6 24 5 2 1 2 2 12 15 7 9 18 6 2 2 1 4 1 3 2 2 2 7 9 11 10 10 7 6 4 6 5 9 4 11
13 14 16 20 21 19 20 20 18 17 17 17 18 19 21 7 4 3 2 17 21 1 1 1 3 3 9 5 5 4 2 2 1 0 2 4 1 2 0 4 5 2 11 10 9 6 6 7 7 4 1 5 5 6
8 11 13 15 17 17 16 17 17 16 14 13 13 9 2 2 1 6 13 16 21 3 3 2 6 5 7 9 6 2 3 2 1 2 2 3 4 4 6 8 6 5 7 10 9 8 6 7 8 8 7 5 4 4
7 9 10 9 7 7 7 8 10 10 5 4 5 3 1 2 20 18 5 3 3 2 2 2 5 3 6 3 2 2 2 2 2 4 2 2 3 7 10 9 8 8 9 10 8 7 5 4 4 4 5 3 4 6
7 9 9 8 6 5 6 7 7 15 5 3 3 3 7 16 3 2 2 3 4 4 3 0 2 3 5 7 4 3 2 2 2 4 3 2 2 4 8 8 10 10 10 9 10 8 8 6 5 5 6 4 8 4
8 9 8 6 5 4 5 7 10 12 9 11 15 8 5 3 2 2 2 3 2 2 1 6 6 3 3 4 3 1 1 3 3 2 3 2 2 5 8 13 11 10 11 10 12 8 7 6 6 6 3 3 5 4
9 9 6 3 2 3 6 9 12 15 20 4 2 2 1 3 3 2 2 3 2 5 6 5 2 2 3 3 1 2 1 3 2 2 2 3 4 10 11 11 11 11 15 13 10 9 7 8 2 3 4 2 4 10
8 7 4 3 2 5 9 12 13 16 4 2 3 6 2 3 3 2 2 2 2 3 6 4 1 3 1 4 4 2 2 2 3 3 3 3 8 10 9 9 11 9 10 8 7 9 4 7 3 8 8 7 11 13
7 7 6 7 4 7 11 15 14 7 3 3 2 2 2 1 2 2 2 0 3 4 4 2 3 3 3 0 2 1 3 3 2 3 4 5 9 11 11 10 10 8 7 9 10 7 7 3 2 10 9 8 8 14
6 5 6 6 8 10 13 19 5 4 3 2 3 4 3 3 4 4 3 4 4 3 2 3 2 3 4 5 3 2 2 2 2 4 8 4 10 10 10 10 9 10 13 13 12 12 8 4 6 9 10 8 13 15
4 2 7 10 12 12 11 7 3 3 3 3 2 1 2 2 3 3 3 3 2 3 2 2 2 3 2 1 1 4 2 3 5 7 6 5 8 8 9 10 14 16 14 14 13 13 12 6 11 13 10 13 11 9
2 9 10 5 5 9 4 6 3 2 0 0 4 4 3 3 3 2 3 4 3 2 2 2 2 3 1 0 1 1 1 3 3 4 4 7 5 13 14 10 13 16 15 14 14 12 12 10 11 9 10 9 8 7
7 6 4 4 7 4 2 3 4 2 2 2 3 2 1 3 4 5 4 5 7 6 5 2 3 1 0 1 2 3 1 1 1 3 6 15 16 17 19 18 15 17 16 14 11 10 11 11 11 11 12 10 10 9
7 6 4 5 6 4 3 2 1 2 2 2 2 3 1 2 5 6 4 3 3 1 3 2 1 2 2 2 2 2 2 1 4 6 7 8 15 21 18 14 13 15 12 4 5 8 8 8 11 9 9 7 5 9
5 4 5 4 4 7 3 3 2 2 2 3 5 2 4 2 3 4 3 3 2 2 2 2 3 3 3 2 11 8 6 7 5 5 6 6 10 12 11 14 17 13 10 9 9 6 5 12 12 12 11 9 7 7
3 5 3 4 3 3 4 5 3 3 1 3 2 4 3 2 2 1 1 4 3 1 2 2 3 3 4 5 6 8 9 12 12 9 8 10 5 5 7 11 11 12 15 17 17 15 16 13 14 13 12 13 13 11
5 2 3 3 2 1 5 4 3 2 2 3 4 2 4 3 2 3 3 6 5 6 7 8 8 8 7 11 10 10 12 13 10 10 12 11 10 9 8 10 8 3 4 6 15 14 13 15 15 18 18 13 13 14
4 3 2 2 4 4 2 2 1 2 2 3 4 5 4 2 4 1 4 3 5 7 6 8 10 6 8 9 5 7 8 8 9 9 12 11 8 8 5 4 7 6 8 6 10 10 7 11 12 9 16 14 13 6
3 3 2 4 4 3 1 2 3 2 4 5 5 2 5 3 3 1 3 5 8 7 7 11 12 6 6 6 8 14 16 13 7 6 12 9 7 2 8 11 14 16 13 16 11 10 8 6 23 14 12 8 10 3
3 4 5 4 4 3 0 2 3 7 4 4 5 4 3 4 1 2 6 7 7 5 6 7 7 7 5 14 8 9 20 25 18 14 14 8 13 16 10 10 4 10 19 13 18 17 18 17 13 12 15 12 12 13
3 3 3 5 3 5 5 3 3 3 6 2 4 4 3 3 4 0 6 7 7 10 13 14 12 10 6 11 9 10 12 13 10 13 14 15 12 11 12 14 11 8 7 16 17 14 14 13 6 3 5 16 13 12
5 6 6 6 5 7 5 4 10 7 3 4 2 4 2 5 4 4 6 15 15 13 12 10 13 12 14 12 12 13 15 13 10 13 13 17 16 18 18 15 12 14 14 13 12 11 13 8 10 12 10 11 4 15
4 6 8 12 4 3 3 5 5 3 3 4 4 3 4 6 7 7 14 16 14 8 6 8 7 17 13 11 6 13 15 14 12 5 6 7 9 9 7 7 9 13 13 14 12 9 6 4 5 9 6 6 5 3
4 6 3 5 6 3 5 4 5 4 3 4 5 5 5 5 14 17 17 16 13 10 10 9 10 13 12 11 8 9 7 16 13 10 4 7 13 14 10 7 8 12 12 13 11 9 7 5 5 5 6 2 2 2
3 5 3 4 2 5 6 4 3 3 3 4 7 7 7 3 7 12 15 16 15 13 12 9 9 7 9 9 12 6 5 12 7 6 16 15 16 17 17 13 8 6 9 15 4 9 6 4 6 8 6 2 2 6
7 2 3 2 4 2 2 4 5 5 5 6 8 6 5 4 5 4 12 15 12 11 10 9 9 9 11 14 13 6 9 17 18 15 10 14 11 16 17 9 11 11 10 11 11 6 7 10 12 11 9 7 9 9
4 6 6 7 5 4 4 3 2 2 3 7 6 8 8 8 7 4 14 16 14 12 14 12 11 10 18 17 15 18 19 20 19 17 14 12 11 10 10 5 4 15 13 13 16 11 10 10 15 15 14 19 14 13
Wind_Direction
319 317 315 313 310 307 303 300 297 292 288 281 272 262 259 251 243 227 226 223 197 216 247 229 203 195 189 110 166 273 241 268 105 91 110 240 222 219 232 188 155 167 173 185 190 206 224 338 28 72 154 99 99 86
324 320 316 312 307 303 300 296 291 284 280 276 271 263 254 251 244 234 216 233 216 224 286 257 246 231 240 118 110 271 298 245 187 110 359 188 308 351 264 151 116 173 149 154 115 147 133 77 102 87 93 100 80 90
325 322 318 312 308 303 298 295 290 284 276 270 265 259 252 247 242 231 211 194 177 250 265 244 225 233 230 203 192 275 302 280 294 169 159 180 169 305 282 257 122 122 120 102 102 173 123 119 117 109 93 106 98 84
331 331 326 321 313 306 304 302 293 282 273 266 260 256 252 247 239 228 201 201 182 194 250 262 230 206 216 205 235 249 276 287 267 156 119 159 168 236 352 280 97 157 110 130 120 127 133 102 108 149 134 128 128 122
342 344 349 349 350 343 331 326 311 291 273 262 256 251 246 238 229 225 204 194 196 210 192 254 210 214 190 202 250 271 274 254 285 108 112 172 249 37 235 15 117 127 142 146 172 130 112 118 90 74 111 134 119 131
351 357 6 17 23 20 14 11 6 354 269 239 245 233 215 200 196 147 151 205 203 181 214 251 201 150 182 228 254 267 305 294 170 157 195 102 117 122 91 178 89 78 63 84 116 98 97 109 106 93 90 45 152 158
0 14 21 16 20 25 30 32 39 50 64 72 92 130 151 147 134 100 178 172 191 151 238 217 47 56 209 237 244 237 224 227 178 200 213 130 143 101 61 161 7 103 106 91 94 96 79 108 114 83 55 75 89 105
18 25 28 31 37 40 42 46 49 59 70 85 97 113 126 116 104 99 116 163 177 256 249 187 83 138 207 235 229 234 137 115 13 133 2 96 44 80 246 250 281 216 116 108 108 93 101 97 93 119 146 163 188 160
4 16 26 32 41 53 51 49 55 66 78 93 105 109 178 283 154 127 121 171 200 285 315 254 143 169 195 214 201 145 140 150 199 119 261 111 152 185 185 208 223 171 141 139 129 145 160 168 183 183 183 221 204 202
343 349 355 2 16 28 23 22 21 10 348 308 303 261 80 70 139 130 144 149 184 229 238 302 334 178 162 81 256 146 116 64 105 214 182 211 223 202 178 183 188 140 125 131 138 170 174 196 209 208 230 247 227 199
328 327 328 331 331 326 335 340 340 343 338 306 291 31 116 144 198 248 248 229 181 184 203 86 330 293 163 170 154 123 347 124 143 257 165 242 217 194 178 163 132 119 117 98 86 74 64 53 22 14 28 19 88 67
322 324 319 321 329 336 333 333 328 343 323 301 290 290 197 218 243 284 283 306 354 327 36 168 198 172 4 4 89 333 206 144 200 249 107 208 232 40 114 114 114 110 105 95 101 97 93 78 38 329 95 51 94 74
318 322 313 312 353 355 341 336 335 330 329 302 255 244 134 215 26 348 113 288 352 348 4 356 37 57 62 21 71 11 125 206 124 99 214 239 190 123 114 108 101 99 102 102 102 108 104 109 187 352 89 140 80 109
311 314 280 258 298 331 332 333 336 343 318 330 323 330 354 13 52 32 1 26 340 345 345 359 16 16 73 53 355 119 281 29 171 198 231 146 127 120 110 105 106 108 110 116 100 101 120 152 206 100 69 90 113 116
306 304 268 256 280 313 325 326 321 314 281 269 242 13 22 344 263 326 116 51 25 336 349 29 54 35 355 217 244 203 201 218 153 222 326 141 122 115 115 110 103 97 99 101 113 116 84 77 86 95 93 103 128 131
313 324 305 286 284 300 320 327 323 215 251 255 29 344 15 10 25 10 89 52 5 315 22 359 66 78 34 331 295 359 348 52 48 336 312 117 115 119 116 108 111 114 104 108 105 104 110 86 92 101 103 87 78 96
317 292 316 317 298 289 307 306 279 243 288 25 309 227 73 56 32 36 51 55 319 29 57 51 67 66 274 222 339 10 38 356 332 324 327 52 120 122 107 104 101 106 107 109 104 113 108 100 106 98 68 85 95 96
290 330 324 319 319 322 248 206 267 274 275 315 54 346 42 96 102 46 37 16 11 53 37 72 85 44 58 223 92 42 300 329 317 357 359 83 43 112 116 117 119 121 113 121 130 132 135 124 103 111 136 132 131 128
299 332 329 326 336 306 272 241 228 300 41 125 152 170 168 74 90 95 106 80 82 109 120 93 60 31 4 345 294 294 230 280 21 59 63 74 81 79 78 75 90 85 119 129 139 150 143 146 141 152 152 167 161 157
278 278 268 297 314 275 272 237 182 286 229 210 195 176 162 97 125 132 154 147 135 210 87 77 106 197 216 248 262 65 41 51 119 103 88 74 74 78 80 90 91 89 80 84 72 136 143 125 149 149 144 150 119 132
312 293 300 272 244 222 277 310 287 159 276 226 210 170 115 282 227 130 150 158 75 64 77 127 171 163 220 187 124 123 94 84 72 88 101 89 93 123 141 145 151 160 173 187 169 176 155 204 186 182 172 176 154 159
290 314 298 230 272 249 228 246 149 256 140 275 271 153 143 153 174 125 189 107 87 87 103 112 108 143 140 142 145 129 136 132 132 138 140 148 160 192 195 205 209 219 214 200 193 179 196 191 197 194 182 182 170 168
331 281 247 246 272 311 257 280 62 347 354 306 316 161 187 205 136 142 88 82 105 121 126 133 166 172 127 144 147 158 180 174 173 163 172 191 198 217 203 210 224 142 25 98 110 140 155 194 181 166 184 185 168 183
315 261 251 246 222 249 168 83 174 211 210 237 207 189 179 147 158 238 101 130 128 129 144 154 158 148 150 157 164 168 203 234 140 182 192 181 180 170 161 226 257 80 153 121 111 86 56 355 194 165 150 134 140 162
281 279 142 282 262 260 166 311 90 357 294 230 255 162 134 104 84 221 158 148 161 162 163 184 207 180 172 193 175 171 173 203 216 197 200 203 228 198 187 201 155 151 161 124 138 120 108 38 315 124 125 151 131 57
259 221 175 243 120 33 153 90 221 196 213 242 248 118 66 63 273 215 156 146 152 172 181 198 200 186 200 175 179 179 190 199 188 228 189 212 236 188 159 202 173 168 168 161 137 145 147 166 251 161 135 149 173 176
258 346 324 290 146 139 175 162 234 176 194 253 296 132 108 115 191 134 120 140 158 179 191 177 163 178 217 136 162 131 114 95 88 87 86 84 82 83 127 105 115 227 142 142 146 158 173 184 157 114 236 162 174 195
252 200 204 263 266 242 277 150 184 203 164 184 86 47 116 152 180 144 139 147 157 178 191 184 184 168 141 155 145 138 120 116 107 100 103 85 79 87 110 115 103 96 107 105 101 99 135 164 155 146 121 124 318 28
248 266 290 294 33 25 336 29 44 49 15 62 82 101 100 90 121 126 135 139 153 183 184 169 186 123 126 118 136 149 153 148 132 156 156 134 122 116 122 140 157 126 120 110 110 102 82 64 105 109 97 79 63 29
248 268 253 348 304 62 70 45 69 56 50 102 109 111 100 90 125 139 145 150 164 185 200 200 156 149 147 150 172 157 178 147 158 182 176 139 146 150 157 180 150 142 148 149 118 96 101 102 107 135 110 70 43 174
226 263 306 17 300 93 100 109 126 124 114 80 75 102 110 136 141 157 160 165 175 187 200 174 170 170 151 170 143 164 187 149 117 145 148 148 155 168 166 152 128 106 113 109 86 279 242 112 244 279 313 347 205 232
325 307 144 164 272 84 186 222 206 170 152 138 124 126 139 166 164 169 172 172 191 186 192 183 178 190 177 144 136 189 189 138 115 106 87 133 117 140 145 168 171 168 200 196 218 219 181 196 209 245 271 173 247 233
237 244 251 248 218 169 206 259 252 229 186 165 162 171 185 186 169 161 181 183 202 197 179 203 194 160 136 134 127 113 118 123 122 118 111 105 101 92 92 97 105 201 206 205 212 212 204 218 221 222 211 216 216 199